Current weather by "City, St" or "zip code"  
 

Current Conditions: Detroit, Detroit Metropolitan Wayne County Airport, MI

Overcast


45.0 F

Last Updated on Oct 29 2020, 8:53 pm EDT
Humidity: 74%
Wind Speed: N 16.1 G 28.8 mph
Barometer 29.87 in
Dewpoint: 37.0 F
Visibility: 10.00 mi
Precip: --
Heat Index: NA
Wind Chill: 38 F
Current conditions at:

Detroit, Detroit Metropolitan Wayne County Airport, MI (KDTW)

Lat: 42.23139 Lon: 83.33083

Local Radar Image active severe weather and emergency alerts image image weather storm and storm spotter reports image weather observation monitoring service image
Local
Radar
Active
Alerts
Storm Reports Obs
Monitoring

Sign-up For Email & Text Message Weather Alert Notification Services



Advertise Here

Observation History for Detroit, Detroit Metropolitan Wayne County Airport, MI


Time Wind
(mph)
Vis
(mi)
Weather Precip (in) Temperature (F) Relative
Humidity
Wind
Chill
(F)
Heat
Index
(F)
Pressure
Air Dwpt altimeter
(in)
sea level
(mb)
Rmks
8:53 pm EDT N 16.1 G 28.8 10.00 Overcast -- 45.0 37.0 74% 38 NA 29.87 1011.6
7:53 pm EDT N 13.8 G 23.0 10.00 Overcast -- 46.0 39.0 77% 40 NA 29.85 1011.1
6:53 pm EDT N 12.7 10.00 Overcast -- 46.0 39.9 79% 40 NA 29.82 1010.1
5:53 pm EDT N 12.7 9.00 Overcast -- 46.0 39.9 79% 40 NA 29.80 1009.2
4:53 pm EDT N 12.7 G 23.0 7.00 Overcast Trace 47.0 41.0 80% 41 NA 29.78 1008.9
3:53 pm EDT N 13.8 4.00 Light Drizzle Trace 48.0 41.0 77% 42 NA 29.76 1007.9
2:53 pm EDT N 13.8 9.00 Overcast -- 51.0 39.0 64% 46 NA 29.74 1007.2
1:53 pm EDT NE 15.0 7.00 Mostly Cloudy -- 52.0 39.0 61% 47 NA 29.75 1007.7
12:53 pm EDT N 9.2 7.00 Mostly Cloudy -- 51.0 37.0 59% 48 NA 29.78 1008.8
11:53 am EDT NE 11.5 7.00 Overcast -- 47.0 34.0 61% 42 NA 29.78 1008.7
10:53 am EDT NE 8.1 7.00 Overcast -- 46.0 35.1 66% 42 NA 29.81 1009.8
9:53 am EDT N 6.9 7.00 Overcast -- 44.0 36.0 73% 40 NA 29.81 1009.6
8:53 am EDT N 4.6 8.00 Overcast -- 43.0 35.1 74% 40 NA 29.81 1009.8
7:53 am EDT N 3.5 8.00 Overcast -- 44.0 35.1 71% NA NA 29.82 1010.0
6:53 am EDT N 0.0 8.00 Overcast -- 43.0 36.0 76% NA NA 29.82 1010.1
5:53 am EDT N 0.0 8.00 Overcast -- 42.0 36.0 79% NA NA 29.84 1010.6
4:53 am EDT N 0.0 8.00 Overcast -- 43.0 36.0 76% NA NA 29.85 1011.0
3:53 am EDT NW 3.5 8.00 Overcast -- 42.0 36.0 79% NA NA 29.88 1012.1
1:53 am EDT S 4.6 9.00 Overcast -- 43.0 36.0 76% 40 NA 29.90 1012.6
12:53 am EDT SW 5.8 9.00 Overcast -- 44.0 36.0 73% 41 NA 29.93 1013.8
11:53 pm EDT SW 5.8 10.00 Overcast -- 44.0 35.1 71% 41 NA 29.94 1014.3
10:53 pm EDT S 5.8 10.00 Overcast -- 44.0 35.1 71% 41 NA 29.94 1014.1
9:53 pm EDT S 6.9 10.00 Overcast -- 45.0 34.0 66% 41 NA 29.97 1015.0

Regional Weather Observation


Ann Arbor, Ann Arbor Municipal Airport, MI (KARB)

Overcast
43.0 F

Detroit, Detroit Metropolitan Wayne County Airport, MI (KDTW)

Overcast
45.0 F

Pontiac, Oakland County International Airport, MI (KPTK)

Overcast
41.0 F

Troy, Oakland/Troy Airport, MI (KVLL)

Overcast
44.0 F

Howell, Livingston County Airport, MI (KOZW)

Overcast
40.0 F

Coleman A Young Municipal Airport, MI (KDET)

Overcast
45.0 F